Location: Krakow
(50.0830°N, 19.9170°E)
Time: 06:50:13
(UTC+02:00)

Tiros 1 despin weight - Pass Details

Date: 19 March 2026
Orbit: 555 x 592 km, 48.2° (Epoch: 18 April)

Event Time Altitude Azimuth Distance (km) Brightness Sun altitude
Rises 07:35:09 0° 278° (W) 2,811 ? 16.4°
Reaches altitude 10° 07:37:30 10° 273° (W) 1,904 ? 16.7°
Maximum altitude 07:41:41 48° 199° (SSW) 757 ? 17.3°
Drops below altitude 10° 07:45:50 10° 125° (SE) 1,876 ? 17.9°
Sets 07:48:08 0° 119° (ESE) 2,766 ? 18.3°
